Wind_Speed
21 23 21 21 20 21 20 17 16 16 16 16 16 16 17 18 17 17 16 15 14 11 12 11 9 11 9 7 11 11 13 16 17 18 19 20 21 20 20 20 20 20 19
26 22 20 21 22 21 18 16 15 15 15 14 15 16 15 15 16 17 15 14 14 12 11 11 10 9 8 9 10 13 14 18 19 18 18 17 17 15 16 17 18 20 19
28 23 21 21 21 19 17 14 14 14 14 13 13 14 15 13 13 16 11 11 11 11 10 10 10 8 9 10 13 12 14 18 18 18 18 18 16 14 17 15 17 19 19
25 22 22 21 20 18 15 14 14 15 15 13 12 12 13 12 12 12 12 10 9 8 9 9 9 8 7 8 11 12 15 16 16 17 15 16 13 15 15 15 17 17 18
23 21 23 21 19 17 16 15 15 15 15 14 12 12 11 11 11 12 10 10 9 7 8 7 7 7 7 7 9 12 14 14 15 17 15 13 15 14 14 16 16 17 16
23 20 23 21 19 18 17 17 17 16 16 15 14 13 11 11 10 11 9 9 9 8 7 8 7 7 7 7 7 11 12 14 14 9 8 15 13 14 15 15 17 15 16
22 21 19 21 20 18 16 16 16 16 16 15 14 13 12 11 10 10 9 7 8 8 8 8 8 9 9 7 7 11 12 10 8 9 17 15 13 17 16 16 16 15 15
26 21 19 20 18 18 16 15 15 16 17 16 14 13 12 11 9 9 9 7 6 6 8 8 9 10 9 10 9 11 11 11 5 7 14 12 14 17 17 16 17 15 14
20 20 20 19 16 15 15 15 16 17 17 17 16 13 12 10 10 9 8 6 5 5 6 7 10 9 10 11 11 12 13 12 7 4 13 14 16 16 16 16 16 16 16
20 19 20 20 17 14 15 15 14 16 17 15 14 13 12 10 10 9 9 7 4 6 6 7 9 10 10 9 10 12 15 13 10 6 14 15 16 16 15 15 15 15 15
23 22 20 20 17 16 16 16 17 16 15 14 12 11 10 10 11 10 9 7 5 5 7 8 8 9 11 12 12 12 13 16 9 3 16 15 17 15 15 15 15 14 13
20 19 22 21 19 17 16 15 15 14 15 14 14 13 13 10 9 9 8 7 6 6 7 8 9 9 12 11 12 13 14 15 8 7 17 14 13 15 14 16 14 14 13
22 24 22 20 21 18 15 15 14 13 13 13 13 14 12 11 13 10 12 9 8 8 7 8 10 11 12 11 10 14 17 15 9 11 18 16 16 15 16 15 14 15 14
22 23 23 24 21 18 17 17 17 13 13 13 15 16 14 15 10 10 10 9 6 8 7 9 11 11 12 12 13 12 15 18 11 9 16 16 14 15 16 16 16 15 15
24 26 26 22 21 21 20 19 19 16 12 12 12 15 17 19 20 13 11 11 9 8 8 11 11 9 11 12 14 15 14 17 14 17 16 16 13 15 17 16 16 16 16
25 26 25 19 18 19 19 15 18 16 12 13 14 15 14 19 20 15 15 15 15 11 11 9 10 10 9 11 11 14 18 17 17 20 21 18 19 18 18 18 17 17 17
26 28 28 20 17 17 14 10 13 13 15 19 19 15 14 19 20 17 16 14 19 15 11 10 10 10 9 9 9 10 10 10 15 16 18 16 19 21 22 21 19 18 16
23 23 22 21 20 20 19 15 14 14 18 18 15 14 17 19 17 19 17 16 17 16 14 12 12 10 11 9 8 10 9 11 8 10 15 18 19 24 25 23 22 19 19
27 26 23 23 22 20 18 17 15 17 14 16 15 15 19 22 21 17 18 17 16 21 15 14 13 11 11 8 7 8 9 7 10 11 14 17 19 20 22 24 25 22 20
27 23 20 19 20 18 15 13 10 10 14 14 16 16 18 22 21 18 17 18 17 17 19 15 15 15 10 7 7 5 7 8 9 13 14 16 15 18 18 19 24 23 21
29 24 20 17 16 16 14 13 14 14 15 14 12 12 14 18 19 20 19 19 19 21 22 19 16 14 14 7 7 4 5 9 10 12 15 15 16 17 21 22 25 27 21
30 25 22 19 16 12 10 9 10 9 13 17 17 16 15 14 19 20 21 21 22 21 21 21 19 16 13 13 6 5 1 4 13 15 13 17 19 20 21 20 26 27 25
30 26 22 18 16 12 9 7 9 11 11 16 19 17 19 20 18 20 22 23 24 24 25 23 23 21 16 14 13 6 2 2 1 6 17 15 17 17 23 24 24 28 27
29 24 16 16 12 9 5 4 7 10 10 14 15 17 17 20 19 18 20 23 24 21 22 24 25 25 19 15 11 14 9 2 2 4 7 13 16 16 20 23 22 24 25
22 19 15 10 12 9 5 1 4 7 12 16 16 17 18 19 19 18 18 22 24 24 23 22 24 26 24 21 15 8 7 9 9 7 4 4 12 17 19 21 20 19 20
22 27 13 16 14 10 6 4 5 6 11 13 16 20 14 13 14 16 17 21 22 22 23 25 25 25 25 23 19 13 8 3 4 10 5 6 7 11 17 19 18 19 21
Wind_Direction
151 147 147 142 138 130 123 122 119 118 113 110 105 105 105 105 103 102 106 113 116 114 120 120 111 112 104 117 116 134 134 133 131 126 123 118 116 117 117 117 115 114 113
150 148 147 148 142 134 128 125 125 123 118 113 114 111 106 109 112 109 112 111 110 109 115 118 114 103 98 117 131 131 136 135 133 126 120 118 119 119 124 121 119 119 118
145 146 150 149 147 140 136 133 131 131 128 124 122 118 114 114 121 126 120 116 116 123 123 124 120 105 103 120 131 133 137 134 134 130 129 128 120 116 126 125 122 122 122
147 145 150 150 147 143 144 142 140 140 140 137 133 124 124 126 126 133 129 126 120 124 130 136 132 124 117 130 131 140 139 138 136 128 127 128 119 120 126 124 124 125 124
142 151 147 151 148 144 145 142 142 144 148 149 148 144 142 138 140 142 139 138 135 143 146 147 147 145 139 143 139 150 147 145 146 143 132 147 135 136 131 130 128 129 127
149 144 145 150 148 142 143 144 145 149 155 160 161 157 157 152 150 155 159 153 148 145 158 159 163 161 158 163 154 154 153 149 147 145 158 159 144 144 138 136 136 137 134
143 143 145 151 147 142 139 142 148 155 161 166 170 167 164 165 162 164 161 172 154 159 163 161 172 169 164 175 180 162 168 164 159 141 160 168 149 147 142 144 144 142 140
136 135 138 153 150 147 141 146 153 162 167 172 172 175 174 174 172 171 171 166 174 170 166 171 172 175 168 185 189 169 178 178 167 174 171 168 157 154 148 151 150 147 144
134 135 137 148 152 156 155 157 163 167 171 175 176 182 183 183 181 178 171 176 185 184 169 185 177 185 186 193 205 187 187 188 175 200 188 171 166 160 155 157 157 154 151
141 137 143 147 150 156 160 162 170 173 177 180 181 186 192 195 189 185 185 190 191 206 186 193 190 199 199 192 216 209 195 194 201 161 193 172 169 168 162 164 163 162 159
145 141 149 155 158 161 166 170 174 177 179 176 181 200 204 199 196 199 201 192 212 214 213 203 211 210 208 205 213 209 203 199 208 167 194 178 173 173 166 170 171 171 164
142 149 157 158 161 167 170 177 177 181 181 187 185 197 205 210 225 207 207 193 202 222 217 218 211 215 216 217 212 209 212 205 195 192 196 174 175 175 173 172 180 175 173
154 157 162 170 171 167 177 182 184 199 196 194 197 204 211 211 214 215 209 202 211 214 216 224 217 216 221 219 220 221 213 206 203 206 179 178 181 185 181 181 183 183 179
167 168 168 174 170 176 187 191 196 200 222 229 216 219 203 215 213 214 224 206 214 216 202 220 225 219 221 222 226 241 226 207 211 195 188 180 185 193 190 187 188 190 187
172 167 171 176 174 184 198 202 200 200 204 237 231 224 232 228 228 223 230 226 221 236 221 218 219 219 217 235 230 231 229 214 217 203 192 175 196 204 199 197 194 195 195
181 167 170 172 167 184 197 207 218 201 198 216 212 211 234 236 225 232 234 232 223 226 226 222 219 221 216 227 228 230 236 236 221 204 208 229 214 213 208 207 203 201 199
145 149 160 165 172 178 195 197 192 206 215 228 237 229 225 237 231 231 236 238 233 236 232 223 211 214 211 220 231 222 208 205 219 204 221 216 211 217 216 213 212 209 207
158 165 166 173 182 183 184 188 192 211 218 221 245 244 236 238 238 236 238 236 229 221 217 214 213 211 219 210 224 206 227 213 223 203 203 208 218 216 216 217 216 212 209
170 171 172 181 182 188 191 202 205 197 222 240 246 254 245 241 239 231 229 228 219 223 215 210 208 210 204 203 228 204 202 233 222 217 212 212 212 220 221 222 224 219 216
169 173 174 175 181 188 193 201 216 226 222 229 238 247 243 233 232 236 235 213 219 220 218 212 210 213 214 217 221 205 218 224 227 225 209 218 224 211 219 232 229 223 220
163 159 167 168 173 183 191 215 215 221 224 237 241 248 235 235 238 235 235 225 215 219 222 218 210 212 218 222 188 204 214 227 225 239 233 219 218 217 219 223 223 220 217
155 168 176 181 179 187 197 231 241 251 254 259 250 255 267 257 237 240 232 231 217 213 219 217 212 208 208 195 162 115 62 242 244 237 234 229 226 223 227 220 221 216 222
158 168 173 179 176 174 196 236 254 262 270 270 271 264 264 265 257 243 239 234 227 218 217 218 217 213 199 199 189 151 107 216 130 243 237 238 233 232 227 225 228 227 234
158 164 168 177 174 170 186 243 270 282 287 298 289 283 271 264 253 246 239 232 229 221 219 219 220 219 211 201 199 212 227 232 72 337 242 242 238 234 228 227 232 232 245
155 157 174 154 144 136 102 36 329 316 317 309 300 296 282 261 249 243 236 228 230 221 222 221 217 215 214 209 196 171 215 218 225 231 270 249 227 236 228 230 227 226 232
127 152 180 143 123 110 111 59 4 333 326 327 323 314 277 260 242 232 230 223 226 226 222 219 220 219 214 215 212 207 178 110 205 231 227 243 222 224 222 224 222 218 220
Height
788 788 790 791 793 794 797 801 803 806 808 809 811 814 816 818 820 822 825 827 827 829 831 833 836 835 836 837 839 840 840 841 843 845 847 848 850 852 852 854 854 856 858
785 790 791 793 795 797 799 803 806 808 810 812 814 816 818 821 823 824 826 828 829 830 833 834 836 837 837 837 839 841 842 842 845 846 848 851 852 854 855 856 856 857 859
785 789 793 795 796 798 800 803 806 809 812 815 817 818 819 822 824 825 827 829 830 831 833 835 837 839 839 840 841 843 843 845 845 847 849 851 853 854 855 857 858 859 860
786 789 793 796 798 799 802 804 806 809 812 816 818 819 821 824 824 827 828 829 831 832 834 836 838 839 840 842 842 844 845 846 848 850 851 853 854 855 856 858 860 861 862
787 789 792 795 798 800 802 803 806 810 813 816 819 821 822 824 826 827 829 830 831 833 834 836 838 839 841 843 845 846 847 848 850 851 853 854 854 857 858 859 861 862 863
787 790 791 795 799 800 803 804 806 810 813 816 819 820 823 824 826 828 830 831 832 832 834 836 838 840 841 842 845 846 849 850 851 852 853 854 856 857 859 861 862 864 864
787 791 792 796 799 802 804 806 808 811 814 817 820 821 823 825 826 828 830 832 832 833 834 835 838 840 841 842 844 847 849 851 852 853 854 855 857 858 861 862 864 865 866
787 791 793 798 801 802 804 808 810 812 814 817 820 822 824 825 827 828 830 831 833 834 834 835 838 840 840 842 843 847 849 850 853 854 856 856 859 860 861 862 864 866 867
788 791 794 799 802 803 804 807 809 811 812 815 818 821 823 826 827 828 830 832 833 835 834 836 837 839 840 841 842 846 849 850 853 854 856 856 859 860 862 864 864 866 868
789 791 794 799 801 803 804 807 809 811 813 816 819 821 823 825 828 829 830 831 832 834 834 836 838 839 840 840 843 845 848 851 852 855 857 857 859 861 863 865 866 867 868
789 789 794 798 799 800 803 805 807 809 812 816 819 823 824 826 827 829 829 831 832 833 834 835 836 838 840 840 841 843 846 849 852 853 856 857 859 861 863 866 867 868 869
789 793 796 796 797 799 802 807 809 810 812 816 817 820 823 826 828 828 829 829 830 832 834 835 835 837 841 840 841 843 844 847 851 852 855 858 860 862 864 865 867 868 869
787 791 793 795 797 800 803 806 808 811 812 815 818 820 821 825 826 829 828 829 830 830 831 834 834 836 838 840 841 841 844 846 850 852 853 856 858 861 863 865 867 868 869
784 787 789 791 795 797 800 802 803 806 810 812 814 817 819 823 826 828 828 828 829 829 829 832 833 835 838 840 840 839 842 845 849 851 852 854 857 860 862 863 865 867 868
782 785 787 790 793 795 797 800 802 804 805 811 813 817 819 821 823 825 827 827 828 828 829 830 831 834 835 837 839 839 840 844 849 845 854 852 855 858 860 862 863 865 867
779 783 786 789 791 794 795 799 800 801 804 806 810 811 814 817 819 822 824 826 827 828 829 828 829 832 831 835 837 838 839 841 846 848 850 849 852 856 858 861 862 863 865
778 782 786 788 792 793 795 798 799 800 802 803 807 809 810 814 817 819 821 822 824 825 827 827 828 830 831 833 834 835 836 829 842 844 842 849 849 853 856 859 859 861 862
775 778 783 788 789 793 793 795 798 799 800 801 803 806 807 810 813 816 817 819 821 823 825 826 827 828 830 831 833 833 834 836 839 842 844 846 847 850 853 854 856 858 860
771 775 779 784 786 789 792 791 795 799 799 800 801 803 805 807 809 811 814 816 817 820 821 824 825 827 828 829 831 831 831 833 836 841 842 843 845 848 850 851 854 856 857
773 778 783 784 786 791 792 792 793 795 798 799 800 802 802 805 806 809 810 812 815 817 819 821 822 825 827 828 829 829 830 832 834 837 840 841 842 843 845 848 851 852 854
768 776 781 783 782 785 790 793 795 793 795 797 800 799 800 801 804 804 806 808 810 813 816 818 820 823 824 827 827 829 829 831 831 833 837 837 839 841 842 842 846 848 849
760 771 778 781 779 781 787 791 793 793 793 793 794 795 796 796 798 800 800 803 806 809 813 814 817 820 822 823 824 826 830 830 830 831 833 835 837 838 839 839 840 843 845
749 764 773 778 780 778 784 789 791 792 792 791 790 792 793 793 793 795 797 799 801 804 807 809 812 815 817 820 820 822 829 832 830 829 830 832 833 834 835 835 836 840 841
748 761 773 778 778 777 780 786 788 789 789 788 788 788 788 788 789 791 792 795 798 800 803 805 808 811 813 816 818 819 822 826 833 836 830 829 829 830 831 833 834 836 837
759 765 768 776 776 776 779 782 785 786 785 783 782 781 781 781 783 786 787 790 794 797 799 802 804 806 809 812 814 817 821 824 830 835 834 828 828 827 827 829 830 832 832
763 768 776 777 777 777 781 783 786 786 783 780 777 776 774 775 777 781 783 786 789 792 795 798 801 802 805 809 812 815 816 822 828 830 829 826 825 824 824 825 827 828 829